Location: Newark
(9.4667°S, 159.8167°E)
Time: 15:43:44
(UTC+00:00)

Courier 1B Rocket - Pass Details

Date: 29 November 2019
Orbit: 920 x 1202 km, 28.2° (Epoch: 10 December)

Event Time Altitude Azimuth Distance (km) Brightness Sun altitude
Rises 12:38:21 0° 253° (WSW) 4,100 - -58.2°
Reaches altitude 10° 12:42:04 10° 238° (WSW) 3,132 - -58.4°
Maximum altitude 12:47:42 21° 192° (SSW) 2,378 - -58.6°
Drops below altitude 10° 12:53:13 10° 145° (SE) 3,057 - -58.8°
Sets 12:56:48 0° 129° (SE) 3,974 - -58.9°
